Regional Weather Roundup
Issued by NWS

Home | Current Version | Previous Version | Graphics & Text | Print | Product List | Glossary On
Versions: 1 2 3 4 5 6 7 8 9 10 11 12 13 14 15 16 17 18 19 20 21 22 23 24 25 26 27 28 29 30 31 32 33 34 35 36 37 38 39 40 41 42 43 44 45 46 47 48 49 50
000
ASUS43 KDMX 290501
RWRIA

WEATHER ROUNDUP FOR IOWA
NATIONAL WEATHER SERVICE DES MOINES IA
1200 AM CDT MON MAY 29 2017

NOTE: "FAIR" INDICATES FEW OR NO CLOUDS BELOW 12,000 FEET WITH NO
SIGNIFICANT WEATHER AND/OR OBSTRUCTIONS TO VISIBILITY.

* - THESE STATIONS ARE NOT NWS STATIONS...THUS NOT UNDER NWS
QUALITY CONTROL.  THEY ALSO DO NOT REPORT WEATHER SUCH
AS PRECIPITATION OR FOG.

IAZ001>003-012>014-020>022-031>034-043>046-290600-
   NORTHWEST IOWA

CITY           SKY/WX    TMP DP  RH WIND       PRES   REMARKS
CARROLL *      PTCLDY    61  48  63 CALM      29.86S
CHEROKEE *     CLEAR     53  49  83 CALM      29.87S
DENISON *      MOCLDY    61  43  51 N5        29.88R
LE MARS *      PTCLDY    55  48  76 CALM      29.89R
ORANGE CITY *  PTCLDY    54  46  76 CALM      29.88S
SHELDON *      PTCLDY    50  45  81 CALM      29.86S
SIOUX CITY     CLOUDY    62  46  55 CALM      29.88R
SPENCER        CLEAR     51  48  89 W5        29.86R
STORM LAKE *   MOCLDY    57  45  62 CALM      29.86F
$$

IAZ055>058-069>071-079>083-090>094-290600-
   SOUTHWEST IOWA

CITY           SKY/WX    TMP DP  RH WIND       PRES   REMARKS
ATLANTIC *     CLEAR     54  48  82 SW7       29.87S
AUDUBON *      CLEAR     55  48  76 SW6       29.86F
CLARINDA *     CLEAR     54  50  87 CALM      29.91S
COUNCIL BLFS * CLEAR     64  43  45 SW6       29.88F
CRESTON *      CLEAR     61  45  55 SW7       29.89F
HARLAN  *      CLOUDY    57  46  67 W6        29.89F
LAMONI         CLEAR     60  46  59 W7        29.88F
RED OAK *      CLEAR     55  48  76 CALM      29.89F
SHENANDOAH *   CLEAR     57  50  77 S3        29.89F
$$

IAZ047>049-059>061-072>074-084-290600-
   CENTRAL IOWA

CITY           SKY/WX    TMP DP  RH WIND       PRES   REMARKS
AMES           CLEAR     60  45  57 NW8       29.84R
ANKENY *       CLEAR     61  45  55 W6        29.84F
BOONE *        CLEAR     59 N/A N/A NW5       29.84F
CHARITON *     CLEAR     59  45  58 W6        29.86F
DES MOINES     CLEAR     64  44  48 W3        29.84F
GRINNELL*      CLEAR     59  45  60 W3        29.85S
KNOXVILLE *    CLEAR     59  45  58 W6        29.83F
MARSHALLTOWN   CLEAR     57  47  69 NW9       29.83R
NEWTON *       CLEAR     61  45  55 W6        29.83S
PELLA *        CLEAR     62  46  57 W6        29.85S
PERRY *          N/A     57  47  67 N9G23     29.86R
$$

IAZ004>006-015-016-023>025-035-036-290600-
   NORTH CENTRAL IOWA

CITY           SKY/WX    TMP DP  RH WIND       PRES   REMARKS
ALGONA *       MOCLDY    57  46  67 W8        29.83S
CLARION *      CLOUDY    61  45  55 W7        29.82S
ESTHERVILLE    CLOUDY    54  49  83 W9        29.83S
FORT DODGE *   PTCLDY    57  43  58 W3        29.85S
MASON CITY     CLOUDY    57  41  55 W9        29.82F
FOREST CITY *    N/A     57  36  44 W5        29.81S
WEBSTER CITY * PTCLDY    59  45  58 NW5       29.81F
IOWA FALLS *   MOCLDY    60  45  57 NW5       29.83F
$$

IAZ007>011-017>019-026>030-037>042-050>054-066-290600-
   NORTHEAST IOWA

CITY           SKY/WX    TMP DP  RH WIND       PRES   REMARKS
CEDAR RAPIDS   CLEAR     55  47  74 W8        29.81R
CHARLES CITY * CLOUDY    63  41  45 NW14      29.80S
CLINTON *      MOCLDY    60  54  80 W9        29.79S
DECORAH *      MOCLDY    61  43  51 VRB5      29.76R
DUBUQUE        CLEAR     55  50  83 SW3       29.78S
MONTICELLO *   CLEAR     59  50  72 CALM      29.79R
OELWEIN *      MOCLDY    63  43  48 W12G18    29.80S
WATERLOO       CLEAR     64  39  39 W12       29.80S
$$

IAZ064-065-067-068-078-290600-
   EAST CENTRAL IOWA

CITY           SKY/WX    TMP DP  RH WIND       PRES   REMARKS
DAVENPORT      MOCLDY    63  52  67 W9        29.80R
IOWA CITY      CLEAR     60  48  64 W8        29.82R
MT. PLEASANT * CLEAR     64  47  53 W5        29.83S
MUSCATINE *    CLEAR     61  50  67 W7        29.81S
QUAD CITIES    PTCLDY    62  50  64 W8        29.79R
$$

IAZ062-063-075>077-085>089-095>099-290600-
   SOUTHEAST IOWA

CITY           SKY/WX    TMP DP  RH WIND       PRES   REMARKS
BURLINGTON     PTCLDY    66  50  56 W5        29.83R
FAIRFIELD *    CLEAR     63  48  59 W7        29.83S
FORT MADISON * PTCLDY    64  52  63 W6        29.85R
KEOKUK *       MOCLDY    64  52  63 W6        29.84R
OSKALOOSA *      N/A     58  46  63 W9        29.84F
OTTUMWA        CLEAR     58  49  72 W7        29.84S
WASHINGTON *   CLEAR     59  50  72 W7        29.84R
$$

ABBREVIATIONS USED IN REMARKS
   TC - TEMPERATURES IN CELSIUS
  WCI - WIND CHILL INDEX
   HX - HEAT INDEX
  VSB - VISIBILITY
$$




USA.gov is the U.S. government's official web portal to all federal, state and local government web resources and services.